Location: Unspecified
(0.0000°N, 0.0000°E)
Time: 04:51:16
(UTC+00:00)

OTV 5 (USA 277) - Pass Details

Date: 25 May 2019
Orbit: 310 x 325 km, 54.5° (Epoch: 08 May)

Event Time Altitude Azimuth Distance (km) Brightness Sun altitude
Exits shadow 05:02:56 - 186° (S) 1,419 ? -12.6°
Reaches altitude 10° 05:03:26 10° 182° (S) 1,237 ? -12.5°
Maximum altitude 05:05:47 25° 123° (ESE) 701 ? -11.9°
Drops below altitude 10° 05:08:07 10° 64° (ENE) 1,231 ? -11.4°
Sets 05:10:15 0° 50° (NE) 2,058 ? -10.9°
